User: anonymous   Login
Location: Unspecified
(0.0000°N, 0.0000°E)
Time: 11:46:21
(UTC+00:00)
Language:

LilacSat-2 - Orbit

View from above orbital plane
View from above orbital plane
View from above satellite
View from above satellite

Ground track
Ground track

The orbit data is extracted from the following two-line orbital elements,

1 40908U 15049K   21169.48430733  .00000643  00000-0  38486-4 0  9997
2 40908  97.5036 169.4621 0015129 190.4916 320.7302 15.14447712317385
Epoch (UTC): 18 June 2021 11:37:24
Eccentricity: 0.0015129
inclination: 97.5036°
perigee height: 512 km
apogee height: 533 km
right ascension of ascending node: 169.4621°
argument of perigee: 190.4916°
revolutions per day: 15.14447712
mean anomaly at epoch: 320.7302°
orbit number at epoch: 31738

The dashed part of the orbit path shows where the satellite is in the earth's shadow,  

DLR